Location: Ammerl�gen
(47.2167°N, 9.6000°E)
Time: 01:27:56
(UTC+00:00)

Cosmos 676 Rocket - Pass Details

Date: 02 August 2021
Orbit: 755 x 783 km, 74.0° (Epoch: 18 September)

Event Time Altitude Azimuth Distance (km) Brightness Sun altitude
Exits shadow 03:05:55 - 259° (W) 2,556 6.2 -8.8°
Reaches altitude 10° 03:06:43 10° 265° (W) 2,342 6.0 -8.7°
Maximum altitude 03:10:28 19° 311° (NW) 1,792 5.8 -8.2°
Drops below altitude 10° 03:14:15 10° 356° (N) 2,348 7.0 -7.6°
Sets 03:17:21 0° 14° (NNE) 3,278 8.1 -7.2°
